Ireland West Airport Knock, Ireland

1:01 AM GMT on December 11, 2017 (GMT +0000)
Connaught

Weather History for EIKN - February, 2014

Change the Weather History Date:

Tuesday, February 11, 2014

  Actual Average Record
Temperature  
Mean Temperature 32 °F -  
Max Temperature 34 °F - - ()
Min Temperature 30 °F - - ()
Degree Days  
Heating Degree Days 33    
Moisture  
Dew Point 30 °F    
Average Humidity 88    
Maximum Humidity 100    
Minimum Humidity 58    
Precipitation  
Precipitation 0.08 in - - ()
Sea Level Pressure  
Sea Level Pressure 29.11 in    
Wind  
Wind Speed 14 mph ()    
Max Wind Speed 29 mph    
Max Gust Speed 48 mph    
Visibility 6.5 miles    
Events Snow , Hail    
T = Trace of Precipitation, MM = Missing Value Source: Averaged Metar Reports

Daily Weather History Graph

Daily Weather History Graph

Search for Another Location

Airport or City:

Trip Planner

Search our weather history database for the weather conditions in past years. The results will help you decide how hot, cold, wet, or windy it might be!

Date:

Astronomy

Feb. 11, 2014 Rise Set
Actual Time 8:03 AM GMT 5:36 PM GMT
Civil Twilight 7:26 AM GMT 6:13 PM GMT
Nautical Twilight 6:44 AM GMT 6:55 PM GMT
Astronomical Twilight 6:03 AM GMT 7:36 PM GMT
Moon 2:32 PM GMT 5:45 AM GMT
Length of Visible Light 10h 47m
Length of Day
9h 33m
Waxing Gibbous, 89% of the Moon is Illuminated
Feb 11
Waxing Gibbous
Feb 14
Full
Feb 22
Last Quarter
Mar 1
New
Mar 8
First Quarter

Hourly Weather History & Observations

Time (GMT) Temp. Windchill Dew Point Humidity Pressure Visibility Wind Dir Wind Speed Gust Speed Precip Events Conditions
12:00 AM 37 °F - 36 °F 94% 29.03 in - South 29.1 mph - -  
1:00 AM 38 °F - 36 °F 88% 29.07 in - SW 15.7 mph - -  
2:00 AM 36 °F - 34 °F 91% 29.06 in - SSW 11.2 mph - -  
3:00 AM 35 °F - 31 °F 81% 29.06 in - SW 15.7 mph - -  
4:00 AM 33 °F - 31 °F 88% 29.08 in - SW 8.9 mph - -  
5:00 AM 33 °F - 30 °F 86% 29.09 in - WSW 11.2 mph - -  
6:00 AM 33 °F - 29 °F 81% 29.10 in 22 mi WSW 15.7 mph - - Snow Light Snow Showers
6:00 AM 33.8 °F 23.5 °F 30.2 °F 87% 29.06 in 6.2 mi WSW 16.1 mph - N/A   Scattered Clouds
7:00 AM 33 °F - 31 °F 90% 29.10 in 22 mi SW 11.2 mph - - Snow Light Snow Showers
7:00 AM 32.0 °F 23.6 °F 32.0 °F 100% 29.06 in 6.2 mi SW 10.4 mph - N/A   Partly Cloudy
8:00 AM 32 °F - 28 °F 79% 29.11 in 22 mi SW 11.2 mph - - Snow Light Snow Showers
8:00 AM 32.0 °F 23.0 °F 28.4 °F 87% 29.06 in 6.2 mi SW 11.5 mph - N/A   Partly Cloudy
8:30 AM 32.0 °F 23.0 °F 26.6 °F 80% 29.06 in 6.2 mi SW 11.5 mph - N/A   Scattered Clouds
9:00 AM 31 °F - 31 °F 97% 29.12 in 34 mi SW 17.9 mph - - Snow Light Snow Showers
9:00 AM 30.2 °F 18.1 °F 30.2 °F 100% 29.06 in 6.2 mi SW 18.4 mph 34.5 mph N/A   Scattered Clouds
9:30 AM 32.0 °F 23.0 °F 28.4 °F 87% 29.06 in 6.2 mi SW 11.5 mph - N/A   Scattered Clouds
10:00 AM 33 °F - 26 °F 67% 29.10 in 16 mi SW 15.7 mph - - Snow Light Snow Showers
10:00 AM 33.8 °F 23.9 °F 26.6 °F 75% 29.06 in 6.2 mi SW 15.0 mph - N/A   Mostly Cloudy
10:30 AM 33.8 °F 25.3 °F 26.6 °F 75% 29.06 in 6.2 mi SSW 11.5 mph - N/A   Mostly Cloudy
11:00 AM 34 °F - 25 °F 58% 29.10 in 19 mi SW 13.4 mph - - Snow Light Snow Showers
11:00 AM 33.8 °F 24.3 °F 24.8 °F 70% 29.06 in 6.2 mi SW 13.8 mph - N/A   Mostly Cloudy
11:30 AM 32.0 °F 19.2 °F 30.2 °F 93% 29.06 in 6.2 mi WSW 23.0 mph 41.4 mph N/A Snow Light Snow Showers
12:00 PM 31 °F - 30 °F 95% 29.13 in 5 mi SW 15.7 mph - - Snow Light Snow Showers
12:00 PM 32.0 °F 21.2 °F 30.2 °F 93% 29.09 in 5.0 mi SW 16.1 mph 36.8 mph N/A Snow Light Snow Showers
12:30 PM - - - N/A% 29.06 in 6.2 mi SSW 15.0 mph - N/A   Mostly Cloudy
1:00 PM 31 °F - 29 °F 90% 29.13 in 3 mi SW 22.4 mph - - Snow Light Snow Showers
1:00 PM 32.0 °F 19.5 °F 28.4 °F 87% 29.09 in 3.1 mi SW 21.9 mph 48.3 mph N/A Snow Light Snow Showers
1:30 PM 32.0 °F 22.1 °F 28.4 °F 87% 29.06 in 6.2 mi WSW 13.8 mph - N/A   Mostly Cloudy
2:00 PM 32 °F - 28 °F 81% 29.13 in 4 mi SW 11.2 mph - - Snow Light Snow Showers
2:00 PM 32.0 °F 23.0 °F 28.4 °F 87% 29.09 in 4.3 mi SW 11.5 mph - N/A   Mostly Cloudy
2:30 PM 30.2 °F 18.1 °F 30.2 °F 100% 29.09 in 1.4 mi West 18.4 mph 32.2 mph N/A Snow Light Snow Showers
3:00 PM 31 °F - 31 °F 100% 29.14 in 12 mi West 8.9 mph - - Snow Light Snow
3:00 PM 30.2 °F 21.9 °F 30.2 °F 100% 29.09 in 6.2 mi West 9.2 mph - N/A   Mostly Cloudy
3:30 PM 32.0 °F 25.6 °F 32.0 °F 100% 29.09 in 6.2 mi SSW 6.9 mph - N/A   Mostly Cloudy
4:00 PM 32 °F - 31 °F 92% 29.17 in 9 mi West 22.4 mph - - Snow Light Snow Showers
4:00 PM 32.0 °F 19.5 °F 30.2 °F 93% 29.12 in 6.2 mi West 21.9 mph 36.8 mph N/A   Mostly Cloudy
4:30 PM 32.0 °F 21.2 °F 30.2 °F 93% 29.12 in 6.2 mi WSW 16.1 mph - N/A Snow Light Snow Showers
5:00 PM 31 °F - 31 °F 100% 29.19 in 1 mi WSW 17.9 mph - - Snow Light Snow Showers
5:00 PM 32.0 °F 20.5 °F 30.2 °F 93% 29.15 in 0.6 mi WSW 18.4 mph 31.1 mph N/A Snow Light Snow Showers
6:00 PM 31 °F - 31 °F 99% 29.18 in 7 mi SSW 11.2 mph - - Hail Light Hail Showers
6:00 PM 32.0 °F 23.6 °F 32.0 °F 100% 29.12 in 6.2 mi SSW 10.4 mph - N/A   Mostly Cloudy
7:00 PM 32 °F - 30 °F 89% 29.21 in 12 mi WSW 15.7 mph - - Hail Light Hail Showers
7:00 PM 32.0 °F 21.2 °F 30.2 °F 93% 29.15 in 6.2 mi WSW 16.1 mph 28.8 mph N/A   Scattered Clouds
8:00 PM 32 °F - - % 29.22 in - WSW 20.1 mph - -  
9:00 PM 32 °F - 28 °F 80% 29.21 in - SSW 8.9 mph - -  
10:00 PM 33 °F - 28 °F 76% 29.23 in - SW 13.4 mph - -  
11:00 PM 33 °F - 28 °F 76% 29.24 in - WSW 8.9 mph - -